Time,TemperatureF,DewpointF,PressureIn,WindDirection,WindDirectionDegrees,WindSpeedMPH,WindSpeedGustMPH,Humidity,HourlyPrecipIn,Conditions,Clouds,dailyrainin,SoftwareType,DateUTC
2013-09-26 00:00:00,66.8,61.5,29.88,ENE,77,0.0,0.0,83,0.00,,SKC,0.00,VWS V12.07,2013-09-26 05:00:00,
2013-09-26 00:06:00,66.4,61.4,29.89,ENE,77,0.0,0.0,84,0.00,,SKC,0.00,VWS V12.07,2013-09-26 05:06:00,
2013-09-26 00:12:00,66.5,61.5,29.89,ENE,77,0.0,0.0,84,0.00,,SKC,0.00,VWS V12.07,2013-09-26 05:12:00,
2013-09-26 00:18:00,66.8,61.8,29.89,ENE,71,0.0,1.0,84,0.00,,SKC,0.00,VWS V12.07,2013-09-26 05:18:00,
2013-09-26 00:24:00,66.0,61.0,29.89,ENE,65,2.0,2.0,84,0.00,,SKC,0.00,VWS V12.07,2013-09-26 05:24:00,
2013-09-26 00:30:00,66.1,61.5,29.89,East,87,0.0,2.0,85,0.00,,SKC,0.00,VWS V12.07,2013-09-26 05:30:00,
2013-09-26 00:36:00,66.4,61.4,29.89,ENE,68,1.0,2.0,84,0.00,,SKC,0.00,VWS V12.07,2013-09-26 05:36:00,
2013-09-26 00:42:00,66.5,61.5,29.89,ENE,77,2.0,3.0,84,0.00,,SKC,0.00,VWS V12.07,2013-09-26 05:42:00,
2013-09-26 00:48:00,66.6,61.3,29.89,ENE,70,0.0,3.0,83,0.00,,SKC,0.00,VWS V12.07,2013-09-26 05:48:00,
2013-09-26 00:54:00,66.5,61.2,29.89,NE,56,0.0,3.0,83,0.00,,SKC,0.00,VWS V12.07,2013-09-26 05:54:00,
2013-09-26 01:01:00,66.3,61.3,29.89,NE,47,1.0,3.0,84,0.00,,SKC,0.00,VWS V12.07,2013-09-26 06:01:00,
2013-09-26 01:06:00,66.2,61.2,29.89,East,88,0.0,2.0,84,0.00,,SKC,0.00,VWS V12.07,2013-09-26 06:06:00,
2013-09-26 01:13:00,66.1,61.1,29.89,NE,51,1.0,2.0,84,0.00,,SKC,0.00,VWS V12.07,2013-09-26 06:13:00,
2013-09-26 01:19:00,66.0,61.0,29.89,ENE,61,0.0,3.0,84,0.00,,SKC,0.00,VWS V12.07,2013-09-26 06:19:00,
2013-09-26 01:27:00,65.9,60.9,29.90,ENE,65,2.0,3.0,84,0.00,,SKC,0.00,VWS V12.07,2013-09-26 06:27:00,
2013-09-26 01:32:00,65.9,61.3,29.90,NE,56,1.0,1.0,85,0.00,,SKC,0.00,VWS V12.07,2013-09-26 06:32:00,
2013-09-26 01:40:00,65.6,61.0,29.90,ENE,60,2.0,2.0,85,0.00,,SKC,0.00,VWS V12.07,2013-09-26 06:40:00,
2013-09-26 01:46:00,65.6,61.0,29.90,ENE,74,0.0,3.0,85,0.00,,SKC,0.00,VWS V12.07,2013-09-26 06:46:00,
2013-09-26 01:51:00,65.6,61.0,29.90,ENE,65,0.0,4.0,85,0.00,,SKC,0.00,VWS V12.07,2013-09-26 06:51:00,
2013-09-26 01:56:00,65.4,60.8,29.90,NE,44,2.0,4.0,85,0.00,,SKC,0.00,VWS V12.07,2013-09-26 06:56:00,
2013-09-26 02:02:00,65.1,60.8,29.90,ENE,68,2.0,2.0,86,0.00,,SKC,0.00,VWS V12.07,2013-09-26 07:02:00,
2013-09-26 02:08:00,64.9,60.6,29.91,NE,48,0.0,3.0,86,0.00,,SKC,0.00,VWS V12.07,2013-09-26 07:08:00,
2013-09-26 02:13:00,64.7,60.8,29.91,ENE,61,0.0,4.0,87,0.00,,SKC,0.00,VWS V12.07,2013-09-26 07:13:00,
2013-09-26 02:19:00,64.4,60.5,29.91,NE,43,2.0,4.0,87,0.00,,SKC,0.00,VWS V12.07,2013-09-26 07:19:00,
2013-09-26 02:24:00,64.3,60.7,29.91,NE,44,0.0,4.0,88,0.00,,SKC,0.00,VWS V12.07,2013-09-26 07:24:00,
2013-09-26 02:30:00,64.1,60.5,29.91,NNE,19,1.0,4.0,88,0.00,,SKC,0.00,VWS V12.07,2013-09-26 07:30:00,
2013-09-26 02:35:00,63.8,60.5,29.91,NNE,17,0.0,2.0,89,0.00,,SKC,0.00,VWS V12.07,2013-09-26 07:35:00,
2013-09-26 02:41:00,63.5,60.5,29.91,NNE,15,0.0,2.0,90,0.00,,SKC,0.00,VWS V12.07,2013-09-26 07:41:00,
2013-09-26 02:47:00,63.1,60.4,29.91,NNE,17,0.0,2.0,91,0.00,,SKC,0.00,VWS V12.07,2013-09-26 07:47:00,
2013-09-26 02:52:00,63.0,60.3,29.91,NNE,33,0.0,2.0,91,0.00,,SKC,0.00,VWS V12.07,2013-09-26 07:52:00,
2013-09-26 02:58:00,63.0,60.3,29.91,NE,41,0.0,2.0,91,0.00,,SKC,0.00,VWS V12.07,2013-09-26 07:58:00,
2013-09-26 03:04:00,62.8,60.1,29.91,NE,44,2.0,2.0,91,0.00,,SKC,0.00,VWS V12.07,2013-09-26 08:04:00,
2013-09-26 03:11:00,62.7,60.0,29.92,East,95,0.0,3.0,91,0.00,,SKC,0.00,VWS V12.07,2013-09-26 08:11:00,
2013-09-26 03:16:00,62.8,60.1,29.91,NE,56,1.0,3.0,91,0.00,,SKC,0.00,VWS V12.07,2013-09-26 08:16:00,
2013-09-26 03:22:00,62.7,59.7,29.91,East,99,1.0,3.0,90,0.00,,SKC,0.00,VWS V12.07,2013-09-26 08:22:00,
2013-09-26 03:28:00,62.7,59.7,29.92,ENE,65,1.0,3.0,90,0.00,,SKC,0.00,VWS V12.07,2013-09-26 08:28:00,
2013-09-26 03:34:00,62.6,59.6,29.92,ENE,61,1.0,4.0,90,0.00,,SKC,0.00,VWS V12.07,2013-09-26 08:34:00,
2013-09-26 03:40:00,62.6,59.6,29.92,NE,53,0.0,4.0,90,0.00,,SKC,0.00,VWS V12.07,2013-09-26 08:40:00,
2013-09-26 03:46:00,62.5,59.5,29.92,ENE,77,0.0,4.0,90,0.00,,SKC,0.00,VWS V12.07,2013-09-26 08:46:00,
2013-09-26 03:52:00,62.4,59.4,29.92,ENE,77,0.0,4.0,90,0.00,,SKC,0.00,VWS V12.07,2013-09-26 08:52:00,
2013-09-26 03:58:00,62.2,59.2,29.92,ENE,78,0.0,4.0,90,0.00,,SKC,0.00,VWS V12.07,2013-09-26 08:58:00,
2013-09-26 04:04:00,62.1,59.1,29.92,ENE,78,0.0,0.0,90,0.00,,SKC,0.00,VWS V12.07,2013-09-26 09:04:00,
2013-09-26 04:11:00,61.8,59.2,29.92,ENE,78,0.0,0.0,91,0.00,,SKC,0.00,VWS V12.07,2013-09-26 09:11:00,
2013-09-26 04:16:00,61.6,59.0,29.92,ENE,78,0.0,0.0,91,0.00,,SKC,0.00,VWS V12.07,2013-09-26 09:16:00,
2013-09-26 04:22:00,61.4,58.8,29.93,ENE,78,0.0,0.0,91,0.00,,SKC,0.00,VWS V12.07,2013-09-26 09:22:00,
2013-09-26 04:28:00,61.4,58.8,29.93,NE,56,0.0,2.0,91,0.00,,SKC,0.00,VWS V12.07,2013-09-26 09:28:00,
2013-09-26 04:34:00,61.4,58.8,29.93,ENE,61,0.0,0.0,91,0.00,,SKC,0.00,VWS V12.07,2013-09-26 09:34:00,
2013-09-26 04:40:00,61.2,58.6,29.93,ENE,60,1.0,1.0,91,0.00,,SKC,0.00,VWS V12.07,2013-09-26 09:40:00,
2013-09-26 04:47:00,61.1,58.5,29.93,ENE,67,0.0,1.0,91,0.00,,SKC,0.00,VWS V12.07,2013-09-26 09:47:00,
2013-09-26 04:52:00,61.1,58.5,29.93,ENE,58,0.0,1.0,91,0.00,,SKC,0.00,VWS V12.07,2013-09-26 09:52:00,
2013-09-26 04:59:00,61.1,58.5,29.93,East,101,0.0,2.0,91,0.00,,SKC,0.00,VWS V12.07,2013-09-26 09:59:00,
2013-09-26 05:05:00,61.0,58.7,29.94,East,93,0.0,2.0,92,0.00,,SKC,0.00,VWS V12.07,2013-09-26 10:05:00,
2013-09-26 05:11:00,60.9,58.3,29.94,East,79,0.0,2.0,91,0.00,,SKC,0.00,VWS V12.07,2013-09-26 10:11:00,
2013-09-26 05:16:00,60.9,58.6,29.94,ENE,70,0.0,2.0,92,0.00,,SKC,0.00,VWS V12.07,2013-09-26 10:16:00,
2013-09-26 05:22:00,60.8,58.5,29.94,East,95,0.0,2.0,92,0.00,,SKC,0.00,VWS V12.07,2013-09-26 10:22:00,
2013-09-26 05:28:00,60.7,58.4,29.94,East,84,0.0,2.0,92,0.00,,SKC,0.00,VWS V12.07,2013-09-26 10:28:00,
2013-09-26 05:34:00,60.3,57.7,29.95,East,84,0.0,0.0,91,0.00,,SKC,0.00,VWS V12.07,2013-09-26 10:34:00,
2013-09-26 05:39:00,59.7,57.4,29.95,East,84,0.0,0.0,92,0.00,,SKC,0.00,VWS V12.07,2013-09-26 10:39:00,
2013-09-26 05:45:00,59.8,58.1,29.95,ENE,68,0.0,2.0,94,0.00,,SKC,0.00,VWS V12.07,2013-09-26 10:45:00,
2013-09-26 05:51:00,59.9,57.9,29.95,ENE,68,0.0,2.0,93,0.00,,SKC,0.00,VWS V12.07,2013-09-26 10:51:00,
2013-09-26 05:56:00,60.0,58.0,29.95,ENE,77,1.0,2.0,93,0.00,,SKC,0.00,VWS V12.07,2013-09-26 10:56:00,
2013-09-26 06:01:00,60.1,58.1,29.95,East,89,0.0,2.0,93,0.00,,SKC,0.00,VWS V12.07,2013-09-26 11:01:00,
2013-09-26 06:07:00,60.0,57.7,29.96,ESE,115,2.0,3.0,92,0.00,,SKC,0.00,VWS V12.07,2013-09-26 11:07:00,
2013-09-26 06:13:00,60.1,58.1,29.96,East,92,0.0,3.0,93,0.00,,SKC,0.00,VWS V12.07,2013-09-26 11:13:00,
2013-09-26 06:19:00,60.0,58.0,29.96,ESE,102,0.0,3.0,93,0.00,,SKC,0.00,VWS V12.07,2013-09-26 11:19:00,
2013-09-26 06:24:00,60.0,58.0,29.96,East,86,0.0,3.0,93,0.00,,SKC,0.00,VWS V12.07,2013-09-26 11:24:00,
2013-09-26 06:30:00,60.0,58.0,29.96,ESE,109,0.0,3.0,93,0.00,,SKC,0.00,VWS V12.07,2013-09-26 11:30:00,
2013-09-26 06:37:00,59.9,57.9,29.96,East,94,0.0,2.0,93,0.00,,SKC,0.00,VWS V12.07,2013-09-26 11:37:00,
2013-09-26 06:42:00,59.8,57.8,29.97,East,94,0.0,2.0,93,0.00,,SKC,0.00,VWS V12.07,2013-09-26 11:42:00,
2013-09-26 06:47:00,59.6,57.9,29.97,East,94,0.0,2.0,94,0.00,,SKC,0.00,VWS V12.07,2013-09-26 11:47:00,
2013-09-26 06:53:00,59.4,57.7,29.97,East,94,0.0,2.0,94,0.00,,SKC,0.00,VWS V12.07,2013-09-26 11:53:00,
2013-09-26 06:58:00,59.1,57.4,29.97,East,93,0.0,2.0,94,0.00,,SKC,0.00,VWS V12.07,2013-09-26 11:58:00,
2013-09-26 07:04:00,58.8,57.1,29.97,East,94,0.0,0.0,94,0.00,,SKC,0.00,VWS V12.07,2013-09-26 12:04:00,
2013-09-26 07:11:00,58.4,56.7,29.98,East,94,0.0,0.0,94,0.00,,SKC,0.00,VWS V12.07,2013-09-26 12:11:00,
2013-09-26 07:16:00,58.3,56.9,29.98,East,93,0.0,0.0,95,0.00,,SKC,0.00,VWS V12.07,2013-09-26 12:16:00,
2013-09-26 07:22:00,58.8,57.7,29.98,East,94,0.0,0.0,96,0.00,,SKC,0.00,VWS V12.07,2013-09-26 12:22:00,
2013-09-26 07:28:00,59.2,57.8,29.98,East,93,0.0,0.0,95,0.00,,SKC,0.00,VWS V12.07,2013-09-26 12:28:00,
2013-09-26 07:36:00,60.4,59.0,29.98,East,93,0.0,0.0,95,0.00,,SKC,0.00,VWS V12.07,2013-09-26 12:36:00,
2013-09-26 07:41:00,61.2,59.8,29.98,East,93,0.0,0.0,95,0.00,,SKC,0.00,VWS V12.07,2013-09-26 12:41:00,
2013-09-26 07:46:00,61.4,59.1,29.99,East,94,0.0,0.0,92,0.00,,SKC,0.00,VWS V12.07,2013-09-26 12:46:00,
2013-09-26 07:51:00,62.0,59.7,29.99,ESE,120,0.0,1.0,92,0.00,,SKC,0.00,VWS V12.07,2013-09-26 12:51:00,
2013-09-26 07:56:00,62.4,59.7,29.99,ESE,110,2.0,3.0,91,0.00,,SKC,0.00,VWS V12.07,2013-09-26 12:56:00,
2013-09-26 08:03:00,62.8,60.1,29.99,East,100,2.0,3.0,91,0.00,,SKC,0.00,VWS V12.07,2013-09-26 13:03:00,
2013-09-26 08:11:00,63.6,60.6,29.99,ESE,115,2.0,5.0,90,0.00,,SKC,0.00,VWS V12.07,2013-09-26 13:11:00,
2013-09-26 08:16:00,63.9,60.6,29.99,ESE,113,2.0,6.0,89,0.00,,SKC,0.00,VWS V12.07,2013-09-26 13:16:00,
2013-09-26 08:21:00,64.1,60.8,29.98,SE,135,5.0,6.0,89,0.00,,SKC,0.00,VWS V12.07,2013-09-26 13:21:00,
2013-09-26 08:26:00,64.3,60.7,29.98,East,94,4.0,7.0,88,0.00,,SKC,0.00,VWS V12.07,2013-09-26 13:26:00,
2013-09-26 08:32:00,64.9,61.3,29.98,ESE,108,1.0,3.0,88,0.00,,SKC,0.00,VWS V12.07,2013-09-26 13:32:00,
2013-09-26 08:38:00,65.5,61.5,29.98,ESE,105,7.0,8.0,87,0.00,,SKC,0.00,VWS V12.07,2013-09-26 13:38:00,
2013-09-26 08:44:00,65.8,61.8,29.98,ESE,113,4.0,8.0,87,0.00,,SKC,0.00,VWS V12.07,2013-09-26 13:44:00,
2013-09-26 08:50:00,66.4,62.1,29.98,SE,139,2.0,8.0,86,0.00,,SKC,0.00,VWS V12.07,2013-09-26 13:50:00,
2013-09-26 08:56:00,66.8,61.8,29.98,SSE,154,3.0,8.0,84,0.00,,SKC,0.00,VWS V12.07,2013-09-26 13:56:00,
2013-09-26 09:01:00,67.1,62.1,29.98,East,95,5.0,8.0,84,0.00,,SKC,0.00,VWS V12.07,2013-09-26 14:01:00,
2013-09-26 09:07:00,67.4,62.1,29.98,SSE,148,1.0,5.0,83,0.00,,SKC,0.00,VWS V12.07,2013-09-26 14:07:00,
2013-09-26 09:13:00,68.2,62.5,29.98,SSE,158,3.0,6.0,82,0.00,,SKC,0.00,VWS V12.07,2013-09-26 14:13:00,
2013-09-26 09:19:00,68.8,63.1,29.98,NE,53,3.0,6.0,82,0.00,,SKC,0.00,VWS V12.07,2013-09-26 14:19:00,
2013-09-26 09:24:00,69.2,63.1,29.98,ESE,120,2.0,6.0,81,0.00,,SKC,0.00,VWS V12.07,2013-09-26 14:24:00,
2013-09-26 09:34:00,69.8,63.4,29.98,ESE,114,5.0,5.0,80,0.00,,SKC,0.00,VWS V12.07,2013-09-26 14:34:00,
2013-09-26 09:40:00,70.1,64.0,29.98,SSE,148,3.0,6.0,81,0.00,,SKC,0.00,VWS V12.07,2013-09-26 14:40:00,
2013-09-26 09:47:00,71.0,64.2,29.98,ESE,120,3.0,6.0,79,0.00,,SKC,0.00,VWS V12.07,2013-09-26 14:47:00,
2013-09-26 09:53:00,71.5,64.7,29.98,SE,136,3.0,6.0,79,0.00,,SKC,0.00,VWS V12.07,2013-09-26 14:53:00,
2013-09-26 09:59:00,72.2,65.0,29.98,ESE,122,4.0,6.0,78,0.00,,SKC,0.00,VWS V12.07,2013-09-26 14:59:00,
2013-09-26 10:06:00,73.1,65.5,29.98,SE,144,2.0,5.0,77,0.00,,SKC,0.00,VWS V12.07,2013-09-26 15:06:00,
2013-09-26 10:12:00,74.0,65.6,29.98,SSE,159,1.0,6.0,75,0.00,,SKC,0.00,VWS V12.07,2013-09-26 15:12:00,
2013-09-26 10:17:00,74.6,66.2,29.98,SE,128,1.0,6.0,75,0.00,,SKC,0.00,VWS V12.07,2013-09-26 15:17:00,
2013-09-26 10:22:00,74.7,65.9,29.98,ESE,120,0.0,6.0,74,0.00,,SKC,0.00,VWS V12.07,2013-09-26 15:22:00,
2013-09-26 10:28:00,75.3,66.1,29.98,SSW,193,4.0,6.0,73,0.00,,SKC,0.00,VWS V12.07,2013-09-26 15:28:00,
2013-09-26 10:36:00,76.2,66.1,29.98,ESE,108,2.0,7.0,71,0.00,,SKC,0.00,VWS V12.07,2013-09-26 15:36:00,
2013-09-26 10:43:00,76.5,66.4,29.98,ESE,110,2.0,7.0,71,0.00,,SKC,0.00,VWS V12.07,2013-09-26 15:43:00,
2013-09-26 10:48:00,76.7,67.0,29.98,ESE,112,5.0,7.0,72,0.00,,SKC,0.00,VWS V12.07,2013-09-26 15:48:00,
2013-09-26 10:54:00,77.4,66.9,29.98,ESE,110,1.0,8.0,70,0.00,,SKC,0.00,VWS V12.07,2013-09-26 15:54:00,
2013-09-26 11:01:00,77.4,66.9,29.98,ESE,113,5.0,11.0,70,0.00,,SKC,0.00,VWS V12.07,2013-09-26 16:01:00,
2013-09-26 11:06:00,77.9,67.8,29.98,East,82,0.0,8.0,71,0.00,,SKC,0.00,VWS V12.07,2013-09-26 16:06:00,
2013-09-26 11:11:00,78.4,67.0,29.98,SE,135,1.0,12.0,68,0.00,,SKC,0.00,VWS V12.07,2013-09-26 16:11:00,
2013-09-26 11:16:00,78.9,67.0,29.98,SE,136,2.0,12.0,67,0.00,,SKC,0.00,VWS V12.07,2013-09-26 16:16:00,
2013-09-26 11:21:00,79.4,67.9,29.98,East,94,2.0,12.0,68,0.00,,SKC,0.00,VWS V12.07,2013-09-26 16:21:00,
2013-09-26 11:27:00,80.4,67.6,29.98,SSE,150,2.0,12.0,65,0.00,,SKC,0.00,VWS V12.07,2013-09-26 16:27:00,
2013-09-26 11:33:00,80.6,67.8,29.98,ESE,113,0.0,5.0,65,0.00,,SKC,0.00,VWS V12.07,2013-09-26 16:33:00,
2013-09-26 11:39:00,81.1,67.8,29.98,SE,141,4.0,9.0,64,0.00,,SKC,0.00,VWS V12.07,2013-09-26 16:39:00,
2013-09-26 11:44:00,81.3,67.1,29.98,ESE,109,8.0,11.0,62,0.00,,SKC,0.00,VWS V12.07,2013-09-26 16:44:00,
2013-09-26 11:50:00,82.1,65.9,29.98,SE,141,5.0,11.0,58,0.00,,SKC,0.00,VWS V12.07,2013-09-26 16:50:00,
2013-09-26 11:56:00,81.9,66.2,29.98,SE,129,3.0,11.0,59,0.00,,SKC,0.00,VWS V12.07,2013-09-26 16:56:00,
2013-09-26 12:01:00,82.2,65.5,29.98,SSE,158,3.0,11.0,57,0.00,,SKC,0.00,VWS V12.07,2013-09-26 17:01:00,
2013-09-26 12:06:00,82.1,65.4,29.98,SE,146,6.0,9.0,57,0.00,,SKC,0.00,VWS V12.07,2013-09-26 17:06:00,
2013-09-26 12:11:00,82.1,65.9,29.98,South,190,4.0,9.0,58,0.00,,SKC,0.00,VWS V12.07,2013-09-26 17:11:00,
2013-09-26 12:17:00,82.8,65.5,29.98,WSW,238,1.0,9.0,56,0.00,,SKC,0.00,VWS V12.07,2013-09-26 17:17:00,
2013-09-26 12:22:00,83.3,66.0,29.98,SE,144,3.0,9.0,56,0.00,,SKC,0.00,VWS V12.07,2013-09-26 17:22:00,
2013-09-26 12:28:00,83.5,65.7,29.98,ESE,115,6.0,9.0,55,0.00,,SKC,0.00,VWS V12.07,2013-09-26 17:28:00,
2013-09-26 12:36:00,83.8,64.9,29.97,SSE,153,3.0,9.0,53,0.00,,SKC,0.00,VWS V12.07,2013-09-26 17:36:00,
2013-09-26 12:41:00,84.1,65.7,29.97,NE,35,0.0,9.0,54,0.00,,SKC,0.00,VWS V12.07,2013-09-26 17:41:00,
2013-09-26 12:46:00,84.1,65.1,29.97,ESE,122,3.0,9.0,53,0.00,,SKC,0.00,VWS V12.07,2013-09-26 17:46:00,
2013-09-26 12:51:00,83.8,64.9,29.97,ESE,103,7.0,11.0,53,0.00,,SKC,0.00,VWS V12.07,2013-09-26 17:51:00,
2013-09-26 12:58:00,83.6,64.7,29.97,East,98,10.0,17.0,53,0.00,,SKC,0.00,VWS V12.07,2013-09-26 17:58:00,
2013-09-26 13:04:00,83.4,64.5,29.97,East,98,4.0,6.0,53,0.00,,SKC,0.00,VWS V12.07,2013-09-26 18:04:00,
2013-09-26 13:10:00,84.0,65.1,29.96,SSE,150,0.0,7.0,53,0.00,,SKC,0.00,VWS V12.07,2013-09-26 18:10:00,
2013-09-26 13:16:00,84.2,64.7,29.96,ENE,57,6.0,12.0,52,0.00,,SKC,0.00,VWS V12.07,2013-09-26 18:16:00,
2013-09-26 13:22:00,84.1,65.1,29.96,ESE,115,4.0,13.0,53,0.00,,SKC,0.00,VWS V12.07,2013-09-26 18:22:00,
2013-09-26 13:29:00,84.1,64.6,29.96,SSE,153,5.0,13.0,52,0.00,,SKC,0.00,VWS V12.07,2013-09-26 18:29:00,
2013-09-26 13:35:00,82.9,64.0,29.96,ESE,110,7.0,8.0,53,0.00,,SKC,0.00,VWS V12.07,2013-09-26 18:35:00,
2013-09-26 13:41:00,83.0,64.1,29.96,East,84,6.0,10.0,53,0.00,,SKC,0.00,VWS V12.07,2013-09-26 18:41:00,
2013-09-26 13:46:00,83.4,64.5,29.96,SE,126,2.0,10.0,53,0.00,,SKC,0.00,VWS V12.07,2013-09-26 18:46:00,
2013-09-26 13:51:00,83.6,64.1,29.96,ESE,111,4.0,10.0,52,0.00,,SKC,0.00,VWS V12.07,2013-09-26 18:51:00,
2013-09-26 13:57:00,84.4,64.9,29.95,SW,221,2.0,10.0,52,0.00,,SKC,0.00,VWS V12.07,2013-09-26 18:57:00,
2013-09-26 14:03:00,84.7,64.6,29.95,SSW,204,2.0,6.0,51,0.00,,SKC,0.00,VWS V12.07,2013-09-26 19:03:00,
2013-09-26 14:09:00,85.0,64.9,29.95,ESE,105,2.0,10.0,51,0.00,,SKC,0.00,VWS V12.07,2013-09-26 19:09:00,
2013-09-26 14:15:00,84.6,63.9,29.95,SSE,148,2.0,10.0,50,0.00,,SKC,0.00,VWS V12.07,2013-09-26 19:15:00,
2013-09-26 14:24:00,84.8,63.5,29.95,SSE,154,3.0,11.0,49,0.00,,SKC,0.00,VWS V12.07,2013-09-26 19:24:00,
2013-09-26 14:30:00,84.8,64.1,29.95,East,101,1.0,11.0,50,0.00,,SKC,0.00,VWS V12.07,2013-09-26 19:30:00,
2013-09-26 14:36:00,85.0,64.3,29.95,WSW,243,0.0,11.0,50,0.00,,SKC,0.00,VWS V12.07,2013-09-26 19:36:00,
2013-09-26 14:42:00,84.5,63.3,29.94,ESE,110,3.0,11.0,49,0.00,,SKC,0.00,VWS V12.07,2013-09-26 19:42:00,
2013-09-26 14:48:00,84.6,63.9,29.94,ESE,110,5.0,13.0,50,0.00,,SKC,0.00,VWS V12.07,2013-09-26 19:48:00,
2013-09-26 14:54:00,84.7,63.5,29.94,SE,134,5.0,13.0,49,0.00,,SKC,0.00,VWS V12.07,2013-09-26 19:54:00,
2013-09-26 15:00:00,84.7,62.9,29.94,SSE,158,1.0,14.0,48,0.00,,SKC,0.00,VWS V12.07,2013-09-26 20:00:00,
2013-09-26 15:13:00,85.3,63.4,29.94,SW,231,3.0,11.0,48,0.00,,SKC,0.00,VWS V12.07,2013-09-26 20:13:00,
2013-09-26 15:19:00,85.5,63.0,29.94,SE,133,2.0,13.0,47,0.00,,SKC,0.00,VWS V12.07,2013-09-26 20:19:00,
2013-09-26 15:25:00,85.4,62.3,29.94,ESE,109,6.0,13.0,46,0.00,,SKC,0.00,VWS V12.07,2013-09-26 20:25:00,
2013-09-26 15:31:00,85.3,62.2,29.94,ESE,108,6.0,8.0,46,0.00,,SKC,0.00,VWS V12.07,2013-09-26 20:31:00,
2013-09-26 15:37:00,85.1,62.6,29.93,SSE,148,3.0,9.0,47,0.00,,SKC,0.00,VWS V12.07,2013-09-26 20:37:00,
2013-09-26 15:43:00,85.7,63.2,29.94,East,101,6.0,9.0,47,0.00,,SKC,0.00,VWS V12.07,2013-09-26 20:43:00,
2013-09-26 15:49:00,85.3,62.8,29.93,SE,143,5.0,10.0,47,0.00,,SKC,0.00,VWS V12.07,2013-09-26 20:49:00,
2013-09-26 15:55:00,85.0,63.1,29.93,ESE,117,4.0,11.0,48,0.00,,SKC,0.00,VWS V12.07,2013-09-26 20:55:00,
2013-09-26 16:01:00,84.7,62.9,29.93,East,96,5.0,7.0,48,0.00,,SKC,0.00,VWS V12.07,2013-09-26 21:01:00,
2013-09-26 16:07:00,84.8,63.5,29.93,SE,127,4.0,11.0,49,0.00,,SKC,0.00,VWS V12.07,2013-09-26 21:07:00,
2013-09-26 16:13:00,85.2,63.3,29.93,SE,130,1.0,11.0,48,0.00,,SKC,0.00,VWS V12.07,2013-09-26 21:13:00,
2013-09-26 16:19:00,85.2,63.3,29.93,SSE,150,3.0,11.0,48,0.00,,SKC,0.00,VWS V12.07,2013-09-26 21:19:00,
2013-09-26 16:25:00,85.0,63.1,29.93,ESE,102,4.0,12.0,48,0.00,,SKC,0.00,VWS V12.07,2013-09-26 21:25:00,
2013-09-26 16:40:00,84.4,63.2,29.94,South,183,1.0,8.0,49,0.00,,SKC,0.00,VWS V12.07,2013-09-26 21:40:00,
2013-09-26 16:46:00,84.2,62.4,29.94,SE,127,3.0,9.0,48,0.00,,SKC,0.00,VWS V12.07,2013-09-26 21:46:00,
2013-09-26 16:52:00,84.1,62.9,29.93,East,86,13.0,13.0,49,0.00,,SKC,0.00,VWS V12.07,2013-09-26 21:52:00,
2013-09-26 16:58:00,83.9,62.7,29.93,East,87,3.0,13.0,49,0.00,,SKC,0.00,VWS V12.07,2013-09-26 21:58:00,
2013-09-26 17:04:00,84.0,63.4,29.93,SSE,156,8.0,10.0,50,0.00,,SKC,0.00,VWS V12.07,2013-09-26 22:04:00,
2013-09-26 17:10:00,84.1,63.5,29.93,ESE,111,2.0,10.0,50,0.00,,SKC,0.00,VWS V12.07,2013-09-26 22:10:00,
2013-09-26 17:16:00,83.8,63.8,29.93,SE,126,7.0,11.0,51,0.00,,SKC,0.00,VWS V12.07,2013-09-26 22:16:00,
2013-09-26 17:22:00,83.2,64.3,29.93,East,97,7.0,11.0,53,0.00,,SKC,0.00,VWS V12.07,2013-09-26 22:22:00,
2013-09-26 17:28:00,82.8,63.9,29.93,SE,135,3.0,14.0,53,0.00,,SKC,0.00,VWS V12.07,2013-09-26 22:28:00,
2013-09-26 17:34:00,82.7,63.8,29.94,East,98,9.0,9.0,53,0.00,,SKC,0.00,VWS V12.07,2013-09-26 22:34:00,
2013-09-26 17:40:00,82.3,64.5,29.94,SE,130,2.0,10.0,55,0.00,,SKC,0.00,VWS V12.07,2013-09-26 22:40:00,
2013-09-26 17:46:00,82.0,64.3,29.94,SE,129,3.0,10.0,55,0.00,,SKC,0.00,VWS V12.07,2013-09-26 22:46:00,
2013-09-26 17:52:00,81.6,64.4,29.94,East,88,8.0,11.0,56,0.00,,SKC,0.00,VWS V12.07,2013-09-26 22:52:00,
2013-09-26 17:58:00,81.2,64.5,29.94,East,101,7.0,11.0,57,0.00,,SKC,0.00,VWS V12.07,2013-09-26 22:58:00,
2013-09-26 18:04:00,80.9,64.2,29.94,ESE,107,4.0,10.0,57,0.00,,SKC,0.00,VWS V12.07,2013-09-26 23:04:00,
2013-09-26 18:10:00,80.6,64.5,29.94,SE,127,6.0,10.0,58,0.00,,SKC,0.00,VWS V12.07,2013-09-26 23:10:00,
2013-09-26 18:16:00,80.2,64.1,29.94,ESE,123,4.0,10.0,58,0.00,,SKC,0.00,VWS V12.07,2013-09-26 23:16:00,
2013-09-26 18:22:00,79.6,64.0,29.94,SE,146,1.0,10.0,59,0.00,,SKC,0.00,VWS V12.07,2013-09-26 23:22:00,
2013-09-26 18:28:00,79.1,64.0,29.94,SE,143,2.0,10.0,60,0.00,,SKC,0.00,VWS V12.07,2013-09-26 23:28:00,
2013-09-26 18:34:00,78.6,63.6,29.94,ESE,123,3.0,8.0,60,0.00,,SKC,0.00,VWS V12.07,2013-09-26 23:34:00,
2013-09-26 18:40:00,78.1,63.6,29.94,ESE,120,5.0,9.0,61,0.00,,SKC,0.00,VWS V12.07,2013-09-26 23:40:00,
2013-09-26 18:46:00,77.6,63.6,29.94,East,92,6.0,9.0,62,0.00,,SKC,0.00,VWS V12.07,2013-09-26 23:46:00,
2013-09-26 18:52:00,77.1,63.1,29.94,ESE,113,3.0,10.0,62,0.00,,SKC,0.00,VWS V12.07,2013-09-26 23:52:00,
2013-09-26 18:58:00,76.7,63.2,29.94,ESE,108,3.0,10.0,63,0.00,,SKC,0.00,VWS V12.07,2013-09-26 23:58:00,
2013-09-26 19:11:00,75.8,62.8,29.94,ESE,103,4.0,7.0,64,0.00,,SKC,0.00,VWS V12.07,2013-09-27 00:11:00,
2013-09-26 19:17:00,75.4,62.8,29.94,ESE,107,4.0,7.0,65,0.00,,SKC,0.00,VWS V12.07,2013-09-27 00:17:00,
2013-09-26 19:23:00,75.0,62.9,29.94,ESE,113,4.0,7.0,66,0.00,,SKC,0.00,VWS V12.07,2013-09-27 00:23:00,
2013-09-26 19:29:00,74.6,62.5,29.94,ESE,120,2.0,7.0,66,0.00,,SKC,0.00,VWS V12.07,2013-09-27 00:29:00,
2013-09-26 19:35:00,74.3,62.6,29.94,ESE,105,2.0,4.0,67,0.00,,SKC,0.00,VWS V12.07,2013-09-27 00:35:00,
2013-09-26 19:41:00,74.0,62.4,29.94,ESE,110,3.0,5.0,67,0.00,,SKC,0.00,VWS V12.07,2013-09-27 00:41:00,
2013-09-26 19:47:00,73.7,62.5,29.95,ESE,114,3.0,6.0,68,0.00,,SKC,0.00,VWS V12.07,2013-09-27 00:47:00,
2013-09-26 19:53:00,73.5,62.3,29.95,ESE,105,2.0,7.0,68,0.00,,SKC,0.00,VWS V12.07,2013-09-27 00:53:00,
2013-09-26 19:59:00,73.3,62.5,29.95,SE,142,2.0,7.0,69,0.00,,SKC,0.00,VWS V12.07,2013-09-27 00:59:00,
2013-09-26 20:05:00,73.2,62.4,29.95,ESE,120,3.0,6.0,69,0.00,,SKC,0.00,VWS V12.07,2013-09-27 01:05:00,
2013-09-26 20:12:00,72.9,62.5,29.96,ESE,114,2.0,6.0,70,0.00,,SKC,0.00,VWS V12.07,2013-09-27 01:12:00,
2013-09-26 20:18:00,72.7,62.4,29.96,ESE,117,3.0,6.0,70,0.00,,SKC,0.00,VWS V12.07,2013-09-27 01:18:00,
2013-09-26 20:24:00,72.5,62.6,29.96,ESE,110,5.0,6.0,71,0.00,,SKC,0.00,VWS V12.07,2013-09-27 01:24:00,
2013-09-26 20:30:00,72.4,62.5,29.96,SE,143,1.0,6.0,71,0.00,,SKC,0.00,VWS V12.07,2013-09-27 01:30:00,
2013-09-26 20:36:00,72.2,62.3,29.96,ESE,114,3.0,6.0,71,0.00,,SKC,0.00,VWS V12.07,2013-09-27 01:36:00,
2013-09-26 20:42:00,72.0,62.5,29.96,ESE,113,4.0,6.0,72,0.00,,SKC,0.00,VWS V12.07,2013-09-27 01:42:00,
2013-09-26 20:48:00,71.8,62.3,29.97,ESE,120,4.0,6.0,72,0.00,,SKC,0.00,VWS V12.07,2013-09-27 01:48:00,
2013-09-26 20:54:00,71.6,62.5,29.97,ESE,109,1.0,6.0,73,0.00,,SKC,0.00,VWS V12.07,2013-09-27 01:54:00,
2013-09-26 21:00:00,71.3,62.2,29.97,ESE,115,3.0,6.0,73,0.00,,SKC,0.00,VWS V12.07,2013-09-27 02:00:00,
2013-09-26 21:06:00,71.0,62.3,29.97,SE,134,4.0,5.0,74,0.00,,SKC,0.00,VWS V12.07,2013-09-27 02:06:00,
2013-09-26 21:12:00,70.9,62.2,29.97,ESE,121,2.0,5.0,74,0.00,,SKC,0.00,VWS V12.07,2013-09-27 02:12:00,
2013-09-26 21:18:00,70.7,62.4,29.97,ESE,105,3.0,5.0,75,0.00,,SKC,0.00,VWS V12.07,2013-09-27 02:18:00,
2013-09-26 21:24:00,70.5,62.2,29.97,SE,129,2.0,5.0,75,0.00,,SKC,0.00,VWS V12.07,2013-09-27 02:24:00,
2013-09-26 21:30:00,70.4,62.1,29.97,East,98,2.0,6.0,75,0.00,,SKC,0.00,VWS V12.07,2013-09-27 02:30:00,
2013-09-26 21:36:00,70.2,61.9,29.97,ESE,104,4.0,5.0,75,0.00,,SKC,0.00,VWS V12.07,2013-09-27 02:36:00,
2013-09-26 21:42:00,70.1,62.2,29.98,SE,133,3.0,5.0,76,0.00,,SKC,0.00,VWS V12.07,2013-09-27 02:42:00,
2013-09-26 21:48:00,69.9,62.0,29.97,SE,125,3.0,5.0,76,0.00,,SKC,0.00,VWS V12.07,2013-09-27 02:48:00,
2013-09-26 21:54:00,69.7,61.8,29.98,ESE,116,0.0,5.0,76,0.00,,SKC,0.00,VWS V12.07,2013-09-27 02:54:00,
2013-09-26 22:00:00,69.5,62.0,29.98,East,100,2.0,5.0,77,0.00,,SKC,0.00,VWS V12.07,2013-09-27 03:00:00,
2013-09-26 22:06:00,69.3,61.8,29.98,ESE,113,3.0,3.0,77,0.00,,SKC,0.00,VWS V12.07,2013-09-27 03:06:00,
2013-09-26 22:12:00,69.1,62.0,29.98,SE,128,1.0,4.0,78,0.00,,SKC,0.00,VWS V12.07,2013-09-27 03:12:00,
2013-09-26 22:18:00,69.0,61.9,29.98,East,91,2.0,5.0,78,0.00,,SKC,0.00,VWS V12.07,2013-09-27 03:18:00,
2013-09-26 22:24:00,68.9,61.8,29.99,South,177,2.0,5.0,78,0.00,,SKC,0.00,VWS V12.07,2013-09-27 03:24:00,
2013-09-26 22:30:00,68.8,61.7,29.99,SE,128,1.0,5.0,78,0.00,,SKC,0.00,VWS V12.07,2013-09-27 03:30:00,
2013-09-26 22:36:00,68.6,61.5,29.99,SSE,153,0.0,3.0,78,0.00,,SKC,0.00,VWS V12.07,2013-09-27 03:36:00,
2013-09-26 22:42:00,68.5,61.7,29.99,ESE,115,1.0,4.0,79,0.00,,SKC,0.00,VWS V12.07,2013-09-27 03:42:00,
2013-09-26 22:48:00,68.3,61.5,29.99,ESE,115,1.0,4.0,79,0.00,,SKC,0.00,VWS V12.07,2013-09-27 03:48:00,
2013-09-26 22:54:00,68.1,61.3,29.99,ESE,122,1.0,4.0,79,0.00,,SKC,0.00,VWS V12.07,2013-09-27 03:54:00,
2013-09-26 23:00:00,68.0,61.2,29.99,ESE,122,2.0,4.0,79,0.00,,SKC,0.00,VWS V12.07,2013-09-27 04:00:00,
2013-09-26 23:03:00,67.9,61.2,29.99,SE,135,2.0,4.0,79,0.00,,SKC,0.00,VWS V12.07,2013-09-27 04:03:00,
2013-09-26 23:06:00,67.8,61.4,29.99,ESE,109,1.0,4.0,80,0.00,,SKC,0.00,VWS V12.07,2013-09-27 04:06:00,
2013-09-26 23:09:00,67.7,61.3,29.99,ESE,122,1.0,4.0,80,0.00,,SKC,0.00,VWS V12.07,2013-09-27 04:09:00,
2013-09-26 23:15:00,67.6,61.2,29.99,ESE,122,2.0,4.0,80,0.00,,SKC,0.00,VWS V12.07,2013-09-27 04:15:00,
2013-09-26 23:21:00,67.5,61.1,29.99,ESE,122,1.0,4.0,80,0.00,,SKC,0.00,VWS V12.07,2013-09-27 04:21:00,
2013-09-26 23:27:00,67.4,61.0,29.99,ESE,120,3.0,4.0,80,0.00,,SKC,0.00,VWS V12.07,2013-09-27 04:27:00,
2013-09-26 23:33:00,67.3,60.9,30.00,ESE,115,3.0,4.0,80,0.00,,SKC,0.00,VWS V12.07,2013-09-27 04:33:00,
2013-09-26 23:39:00,67.2,60.8,30.00,ESE,118,3.0,4.0,80,0.00,,SKC,0.00,VWS V12.07,2013-09-27 04:39:00,
2013-09-26 23:45:00,67.1,60.7,30.00,ESE,105,1.0,4.0,80,0.00,,SKC,0.00,VWS V12.07,2013-09-27 04:45:00,
2013-09-26 23:51:00,67.0,60.6,30.00,ESE,110,1.0,4.0,80,0.00,,SKC,0.00,VWS V12.07,2013-09-27 04:51:00,
2013-09-26 23:57:00,66.9,60.5,30.00,ESE,116,2.0,5.0,80,0.00,,SKC,0.00,VWS V12.07,2013-09-27 04:57:00,